Regional Weather Roundup
Issued by NWS

Home | Current Version | Previous Version | Text Only | Print | Product List | Glossary On
Versions: 1 2 3 4 5 6 7 8 9 10 11 12 13 14 15 16 17 18 19 20 21 22 23 24 25 26 27 28 29 30 31 32 33 34 35 36 37 38 39 40 41 42 43 44 45 46 47 48 49 50
000
ASUS43 KMPX 311010
RWRMN
WEATHER ROUNDUP FOR MINNESOTA
NATIONAL WEATHER SERVICE TWIN CITIES/CHANHASSEN MN
400 AM CST SAT JAN 31 2015


NOTE: "FAIR" INDICATES FEW OR NO CLOUDS BELOW 12,000 FEET WITH NO
SIGNIFICANT WEATHER AND/OR OBSTRUCTIONS TO VISIBILITY. N/A MEANS
CURRENT SKY AND/OR WEATHER CONDITIONS ARE NOT AVAILABLE.

MNZ060>063-068>070-311100-
   Twin Cities Metro

CITY           SKY/WX    TMP DP  RH WIND       PRES   REMARKS
TWIN CITIES    CLOUDY    22  19  89 CALM      30.13S
ST PAUL        CLOUDY    24  20  84 CALM      30.14F
CRYSTAL        PTCLDY    22  18  85 CALM      30.12S FOG
BLAINE         CLOUDY    28  25  86 CALM      30.12S
LAKEVILLE      CLEAR     21  19  93 CALM      30.11S
EDEN PRAIRIE   CLEAR     20  17  88 CALM      30.11S
SOUTH ST PAUL  CLOUDY    23  20  86 CALM      30.13S
LAKE ELMO      CLOUDY    28  23  80 CALM      30.13S
$$
MNZ001>005-007-008-013>017-022>024-027-028-311100-
   Northwest Minnesota

CITY           SKY/WX    TMP DP  RH WIND       PRES   REMARKS
BEMIDJI        CLOUDY    19  16  88 NW8       30.15R WCI   9
HALLOCK        PTCLDY     7   0  72 N13       30.32F WCI  -9
ROSEAU         PTCLDY     5  -2  72 N14       30.27R WCI -12
WARROAD        PTCLDY     3  -2  78 NW14G20   30.26R WCI -15
THIEF RVR FALL MOCLDY    12   9  85 N16       30.26R WCI  -4
CROOKSTON      CLOUDY    14   9  79 N23       30.29R WCI  -5
FOSSTON        CLOUDY    14  10  85 N16       30.20R WCI  -2
DETROIT LAKES  CLOUDY    19  19 100 N12       30.18R WCI   7
MOORHEAD       CLOUDY    18  18 100 N16G22    30.25R WCI   3
PARK RAPIDS    CLOUDY    23  18  81 N9        30.13R WCI  13
MAHNOMEN       CLOUDY    17  14  88 N14G20    30.18R WCI   3
$$
MNZ006-009>011-018-025>026-311100-
   North Central Minnesota

CITY           SKY/WX    TMP DP  RH WIND       PRES   REMARKS
BAUDETTE       PTCLDY     8   2  76 NW16      30.20R WCI -10
FLAG ISLAND    CLEAR      1  -2  85 NW17      30.23R WCI -19
INTL FALLS     CLOUDY    13   7  77 NW14      30.15R WCI  -2
WASKISH        CLOUDY    14  10  85 NW7       30.17S WCI   4
BIG FORK       CLOUDY    18  14  86 NW5       30.13R WCI  11
LONGVILLE      CLOUDY    21  19  93 N3        30.13R
GRAND RAPIDS   CLOUDY    21  16  79 NW12      30.10R WCI   9
CRANE LAKE     FLURRIES  14  10  85 NW3       30.14R
ORR            CLOUDY    16  10  79 NW8       30.09R WCI   5
COOK           CLOUDY    18  12  79 NW7       30.10R WCI   8
WALKER         CLOUDY    20  17  86 N8        30.13R WCI  11
$$
MNZ012-019>021-037-311100-
   Northeast Minnesota

CITY           SKY/WX    TMP DP  RH WIND       PRES   REMARKS
DULUTH         CLOUDY    21  14  74 W7        30.07R WCI  12
ELY            CLOUDY    16  12  86 NW9       30.07R WCI   4
HIBBING        CLOUDY    20  13  74 NW14      30.09R WCI   7
EVELETH        CLOUDY    21  14  73 N6        30.09R WCI  14
DULUTH HARBOR  CLOUDY    21  16  79 CALM      30.14R
TWO HARBORS    CLOUDY    21  12  68 W3        30.07R
SILVER BAY     CLOUDY    19  12  73 CALM      30.06R
GRAND MARAIS     N/A     18  12  77 W3        30.09F
G MARAIS ARPRT FLURRIES  12   7  79 NW6       30.00S WCI   3
$$
MNZ029>031-032-039>041-046>048-054>057-064-311100-
   West Central Minnesota

CITY           SKY/WX    TMP DP  RH WIND       PRES   REMARKS
FERGUS FALLS   CLOUDY    19  16  86 N12       30.22R WCI   7
WHEATON        CLOUDY    21  18  86 NW12G18   30.22S WCI   9
MORRIS         CLOUDY    23  21  93 NW20      30.16S FOG     WCI   8
ALEXANDRIA     CLOUDY    23  20  88 N12       30.15R WCI  12
ELBOW LAKE     CLOUDY    22  19  91 NW13      30.17R WCI   9
WADENA         CLOUDY    21  19  93 NW9       30.15R WCI  11
GLENWOOD       CLOUDY    23  21  93 N7        30.15R WCI  15
APPLETON       CLOUDY    27  23  86 N16       30.17S WCI  14
BENSON         CLOUDY    25  21  86 N7        30.16S WCI  17
ORTONVILLE     CLOUDY    25  21  86 N18       30.18R WCI  11
MADISON        CLOUDY    28  27  93 N20       30.17R FOG     WCI  15
WILLMAR        FAIR      21  19  93 N9        30.14S WCI  11
$$
MNZ033>034-036-042>043-049>051-058-059-311100-
   Central Minnesota

CITY           SKY/WX    TMP DP  RH WIND       PRES   REMARKS
ST CLOUD       CLOUDY    20  18  92 NW3       30.12S
SAUK CENTRE    CLOUDY    21  19  94 NW5       30.14R WCI  14
PAYNESVILLE    PTCLDY    20  20 100 W8        30.14R WCI  10
AITKIN         CLOUDY    27  19  74 NW5       30.10R WCI  21
PINE RIVER     CLOUDY    25  19  80 N9        30.15R WCI  15
BRAINERD       CLOUDY    25  20  81 N8        30.12R WCI  16
STAPLES        CLOUDY    21  21 100 NW7       30.14R WCI  13
LONG PRAIRIE   CLOUDY    21  19  93 NW9       30.13S WCI  11
LITTLE FALLS   MOCLDY    23  21  93 CALM      30.13S
LITCHFIELD     CLEAR     25  25 100 NW8       30.13R WCI  16
BUFFALO        CLEAR     17  15  93 CALM      30.13S
MAPLE LAKE     MOCLDY    20  20  98 NW3       30.13R
$$
MNZ037-044-045-052-053-311100-
   East Central Minnesota

CITY           SKY/WX    TMP DP  RH WIND       PRES   REMARKS
PRINCETON      CLOUDY    25  21  86 CALM      30.12S
MORA           CLOUDY    23  18  80 CALM      30.13F
CAMBRIDGE      CLOUDY    28  19  69 CALM      30.11R
RUSH CITY      CLOUDY    26  21  83 CALM      30.12S
MOOSE LAKE     CLOUDY    23  16  74 CALM      30.10R
HINCKLEY       CLOUDY    23  19  86 CALM      30.11F
CLOQUET        CLOUDY    19  14  79 CALM      30.09R
MCGREGOR       CLOUDY    25  21  86 NW5       30.11R WCI  19
$$
MNZ071>073-080-081-089-090-097-098-311100-
   Southwest Minnesota

CITY           SKY/WX    TMP DP  RH WIND       PRES   REMARKS
MONTEVIDEO     CLEAR     23  23 100 N14       30.16S WCI  11
GRANITE FALLS  CLEAR     25  22  91 NW10      30.16R WCI  14
CANBY          CLOUDY    27  25  92 N15       30.17S FOG     WCI  15
MARSHALL       FAIR      25  19  80 N14       30.16R WCI  13
REDWOOD FALLS  CLEAR     27  24  89 NW8       30.13R WCI  19
OLIVIA         CLEAR     21  19  93 NW7       30.13R WCI  13
PIPESTONE      PTCLDY    25  23  93 NE6       30.10S WCI  18
WINDOM         PTCLDY    23  21  93 CALM      30.12R
WORTHINGTON    PTCLDY    25  19  80 W7        30.11S WCI  17
JACKSON        PTCLDY    27  23  86 W6        30.12R WCI  20
TRACY          CLEAR     28  26  92 NW10      30.14R WCI  19
SLAYTON        PTCLDY    26  25  97 N6        30.12R WCI  19
$$
MNZ065>067-074>077-082>085-091>093-311100-
   South Central Minnesota

CITY           SKY/WX    TMP DP  RH WIND       PRES   REMARKS
MANKATO        CLEAR     25  19  80 S6        30.11F WCI  18
NEW ULM        PTCLDY    19  19 100 W5        30.12S FOG     WCI  13
ST JAMES       PTCLDY    27  23  86 W6        30.13S WCI  20
FAIRMONT       PTCLDY    25  19  80 SW5       30.11S WCI  19
GLENCOE        CLEAR     22  21  97 CALM      30.11S
FARIBAULT      CLEAR     21  19  93 CALM      30.12S
OWATONNA       CLEAR     23  19  86 SW5       30.11F WCI  17
WASECA         CLEAR     23  21  93 S3        30.13F
ALBERT LEA     CLEAR     27  23  86 SW3       30.12S
$$
MNZ078>079-086>088-094>096-311100-
   Southeast Minnesota

CITY           SKY/WX    TMP DP  RH WIND       PRES   REMARKS
ROCHESTER      CLEAR     21  16  81 SW13      30.11F WCI   9
RED WING       CLOUDY    25  19  80 CALM      30.13S
STANTON        CLEAR     25  20  84 SW5       30.11S WCI  19
DODGE CENTER   PTCLDY    21  19  93 SW8       30.10F WCI  12
WINONA         CLOUDY    23  18  80 CALM      30.16F
AUSTIN         CLEAR     21  18  86 S3        30.12F
PRESTON        FAIR      22  17  81 SW7       30.13S WCI  13
$$
ABBREVIATIONS USED IN REMARKS
   TC - TEMPERATURES IN CELSIUS
  WCI - WIND CHILL INDEX
   HX - HEAT INDEX
  VSB - VISIBILITY
$$


USA.gov is the U.S. government's official web portal to all federal, state and local government web resources and services.